User: anonymous   Login
Location: DARK SKY Beskydy - Park tmavé oblohy, www.darkskybeskydy.cz
(49.4926°N, 18.5016°E)
Time: 08:59:33
(UTC+02:00)
Language:

ISS - Orbit

View from above orbital plane
View from above orbital plane
View from above satellite
View from above satellite

Ground track
Ground track

The orbit data is extracted from the following two-line orbital elements,

1 25544U 98067A   22271.16944060  .00011404  00000-0  20504-3 0  9998
2 25544  51.6445 186.3703 0002377 302.1938 200.8758 15.50341653361159
Epoch (UTC): 28 September 2022 04:03:59
Eccentricity: 0.0002377
inclination: 51.6445°
perigee height: 414 km
apogee height: 417 km
right ascension of ascending node: 186.3703°
argument of perigee: 302.1938°
revolutions per day: 15.50341653
mean anomaly at epoch: 200.8758°
orbit number at epoch: 36115

The dashed part of the orbit path shows where the satellite is in the earth's shadow,  

DLR